Temp
13 13 12 12 13 13 13 13 13 14 14 13 13 14 13 13 12 12 11 11 11 10 11 11 11 10 10 10 10 9 9 9 9 9 9 9 9 9 9 8 8 8 8 8 8 9 8 8 8
13 13 12 12 13 14 13 13 14 14 14 13 13 13 13 13 13 13 12 12 11 10 10 11 11 11 10 10 10 10 9 9 9 9 9 9 9 9 9 9 8 8 8 8 8 8 8 8 8
12 13 13 13 14 14 13 14 14 14 14 13 13 13 13 12 13 13 12 12 11 11 11 10 11 11 11 10 10 10 10 9 9 9 9 9 9 9 9 8 9 8 8 8 8 8 8 8 8
12 12 13 13 13 13 14 14 14 14 14 13 13 13 12 13 13 12 12 11 11 11 11 11 10 11 10 10 10 10 9 9 9 9 9 9 9 9 9 8 8 8 8 8 8 8 8 8 8
12 13 13 14 13 14 14 14 14 14 14 13 13 13 12 13 13 12 11 11 11 11 11 11 11 11 10 10 10 10 10 10 9 9 9 9 9 9 9 9 8 8 8 8 8 8 8 8 8
12 13 12 12 13 14 14 15 14 14 13 14 13 13 13 13 13 12 11 11 11 11 11 11 11 11 11 11 10 10 10 10 10 10 9 9 9 9 9 9 8 8 8 8 8 8 8 8 8
12 12 12 13 12 14 14 14 15 14 14 14 14 14 13 13 13 13 12 11 11 11 11 11 11 11 11 11 11 10 10 10 10 10 10 9 9 9 9 9 8 8 8 8 8 8 8 8 8
12 12 13 12 12 13 13 14 14 14 14 13 14 14 14 13 13 13 12 12 11 11 11 11 11 10 11 11 11 11 10 10 10 10 9 9 9 9 9 9 9 9 8 8 8 8 8 8 8
11 11 13 12 12 12 13 13 13 14 14 14 14 14 14 13 13 13 12 12 12 11 12 11 11 11 11 11 11 11 11 10 10 10 10 9 9 9 9 9 9 9 8 8 8 8 8 8 8
11 11 12 12 11 12 13 13 13 14 14 14 13 13 13 13 13 13 13 13 12 12 12 11 11 11 11 11 11 11 11 11 10 10 10 9 9 9 9 9 8 8 8 8 8 8 8 8 8
11 11 11 12 12 12 12 13 13 13 14 13 13 12 12 13 13 13 13 13 12 12 12 12 12 11 11 11 11 11 11 11 11 11 10 10 10 10 9 9 9 9 8 8 8 8 8 8 8
10 11 11 11 11 11 12 13 13 13 14 14 13 12 12 12 13 13 13 13 13 12 12 12 12 12 12 11 11 11 11 11 11 10 10 10 10 10 10 10 9 9 9 9 9 9 8 9 8
10 11 11 11 11 11 12 13 13 14 14 14 13 13 12 12 12 12 13 13 13 13 12 12 11 12 12 12 12 12 11 11 11 11 11 10 10 10 10 10 10 9 9 9 9 9 8 8 8
11 11 11 12 12 12 12 13 12 14 13 13 14 13 13 12 13 12 12 13 13 13 13 12 11 11 11 11 12 12 12 11 11 11 11 11 10 10 10 10 10 10 9 9 9 9 9 9 8
10 11 12 13 13 13 12 13 14 13 13 13 13 13 13 12 13 13 13 13 13 13 13 12 12 12 12 12 12 12 11 11 11 11 11 11 10 10 10 10 10 9 9 9 9 9 9 9 8
10 10 11 14 13 13 12 14 14 13 13 13 13 13 13 14 13 13 13 13 13 12 12 13 12 12 12 12 12 12 12 11 11 11 11 10 10 10 10 10 9 9 8 9 9 9 9 9 9
10 10 11 12 12 12 12 13 13 13 13 13 13 13 13 13 13 13 13 13 13 13 13 13 12 12 12 12 12 11 11 11 11 11 11 11 10 10 10 10 9 9 9 9 9 9 9 9 9
10 9 10 10 14 11 11 11 12 13 12 13 13 13 13 13 13 13 13 13 13 13 13 13 13 12 12 12 11 11 11 11 11 11 11 11 11 10 10 10 9 9 9 9 8 8 8 8 8
8 8 8 10 12 10 11 11 12 12 12 13 13 13 13 13 13 13 13 13 13 13 13 13 13 12 12 13 12 12 11 11 10 10 11 11 10 10 10 10 10 9 9 8 8 8 8 8 8
8 8 8 9 10 10 10 11 11 12 12 13 13 14 14 14 14 13 14 13 13 13 13 13 13 12 13 12 12 12 11 10 10 11 11 11 11 11 10 10 10 9 9 9 8 8 8 8 8
8 8 8 9 10 10 10 11 11 12 12 13 13 14 14 14 14 14 14 13 13 13 12 13 12 12 12 12 12 11 11 11 11 10 10 11 10 10 10 10 10 9 9 9 8 8 8 7 7
7 8 8 9 9 9 10 9 11 11 11 12 14 14 14 14 14 14 14 14 14 13 13 12 12 12 12 12 12 11 11 10 10 10 10 10 10 10 10 10 10 9 10 9 8 8 8 7 7
7 8 8 8 9 9 9 9 11 11 11 11 13 14 14 13 13 14 14 14 14 13 13 12 12 12 12 12 12 11 10 10 9 9 10 10 10 10 10 10 9 10 9 9 9 9 9 8 7
6 7 7 8 8 7 9 9 10 10 10 11 12 13 13 12 12 13 13 14 13 13 13 12 12 12 12 12 11 10 9 9 9 9 10 10 10 10 10 9 9 9 9 9 9 8 8 8 7
6 6 6 6 7 7 8 9 9 10 10 11 12 12 13 12 12 12 13 13 13 13 13 13 12 12 12 12 11 9 9 9 9 10 10 10 10 9 9 9 9 9 9 8 8 8 8 8 7
5 5 5 5 5 6 8 8 9 10 10 10 11 11 11 13 14 13 13 13 13 13 13 13 13 12 12 12 12 10 9 9 9 9 9 9 10 9 9 9 9 8 8 8 8 8 7 7 6
4 4 5 4 4 4 6 7 8 8 9 10 10 10 11 11 12 12 12 13 13 12 13 12 12 12 11 11 10 9 9 9 9 10 9 9 9 9 9 9 9 8 8 7 7 7 6 6 6
4 4 4 4 1 2 6 6 6 8 8 10 9 10 9 9 7 10 11 11 12 12 12 11 11 11 10 10 9 9 9 9 9 9 9 9 9 8 9 8 8 8 8 8 7 6 6 5 4
3 2 3 2 1 1 1 5 6 6 7 8 9 8 8 8 8 9 7 11 11 11 11 10 10 10 9 9 9 9 9 9 9 9 8 8 8 8 8 8 8 8 7 6 6 5 5 4 3
2 -1 0 -0 -0 -0 1 1 5 6 7 7 8 7 7 7 7 8 8 8 9 8 8 9 10 10 9 9 9 9 9 9 8 8 8 8 8 8 8 8 7 7 6 6 5 4 3 3 2
Height
3176 3176 3175 3175 3180 3177 3176 3179 3179 3178 3176 3174 3175 3175 3175 3177 3178 3179 3175 3176 3176 3178 3180 3182 3183 3184 3186 3187 3187 3187 3187 3186 3185 3184 3184 3185 3185 3185 3185 3186 3186 3186 3185 3185 3184 3185 3184 3184 3184
3177 3177 3177 3176 3177 3176 3178 3178 3178 3176 3177 3175 3174 3175 3176 3176 3175 3174 3173 3174 3174 3178 3181 3182 3184 3185 3186 3187 3187 3187 3187 3187 3187 3186 3186 3186 3186 3186 3186 3187 3187 3186 3186 3186 3186 3186 3186 3185 3185
3177 3179 3180 3178 3177 3177 3179 3179 3177 3177 3176 3177 3175 3175 3175 3175 3175 3172 3173 3173 3173 3176 3178 3181 3184 3186 3186 3187 3188 3188 3188 3187 3187 3187 3187 3186 3186 3187 3187 3187 3188 3187 3187 3187 3187 3187 3186 3186 3185
3178 3180 3180 3178 3178 3178 3179 3179 3177 3176 3176 3175 3175 3176 3174 3172 3172 3171 3170 3172 3172 3174 3176 3178 3181 3184 3186 3187 3188 3188 3188 3188 3188 3188 3187 3187 3187 3187 3187 3187 3187 3187 3187 3187 3187 3187 3186 3186 3185
3179 3180 3179 3179 3178 3176 3177 3177 3178 3175 3175 3175 3174 3175 3175 3172 3172 3171 3170 3169 3170 3172 3174 3176 3179 3181 3184 3185 3186 3187 3187 3187 3187 3187 3186 3186 3186 3186 3186 3187 3187 3187 3187 3186 3186 3186 3186 3185 3184
3180 3180 3179 3179 3179 3178 3177 3178 3178 3176 3174 3174 3174 3174 3174 3173 3174 3172 3170 3170 3169 3170 3172 3175 3177 3179 3181 3183 3185 3186 3187 3187 3186 3186 3186 3187 3187 3186 3186 3186 3185 3185 3185 3185 3185 3185 3185 3184 3184
3180 3179 3179 3180 3176 3176 3180 3179 3177 3177 3174 3174 3173 3173 3173 3171 3173 3172 3170 3170 3170 3171 3172 3175 3176 3177 3179 3181 3183 3184 3185 3186 3186 3186 3185 3185 3185 3185 3184 3184 3184 3184 3184 3184 3183 3183 3183 3182 3182
3179 3178 3178 3179 3176 3179 3179 3179 3179 3178 3177 3173 3173 3172 3172 3171 3172 3171 3171 3171 3171 3172 3172 3173 3175 3176 3176 3179 3179 3181 3182 3183 3183 3183 3183 3183 3183 3184 3183 3183 3182 3182 3182 3181 3181 3181 3180 3180 3180
3177 3177 3177 3177 3178 3176 3177 3176 3176 3175 3175 3173 3171 3171 3171 3169 3171 3171 3170 3171 3170 3170 3172 3172 3172 3174 3175 3175 3176 3178 3179 3179 3180 3180 3180 3181 3181 3181 3181 3180 3180 3180 3180 3179 3178 3178 3178 3177 3177
3177 3176 3175 3177 3177 3176 3175 3174 3174 3173 3173 3171 3171 3170 3169 3169 3169 3169 3169 3169 3170 3169 3169 3171 3171 3172 3173 3174 3174 3175 3175 3176 3177 3177 3178 3178 3178 3178 3178 3178 3178 3178 3177 3177 3176 3175 3175 3174 3174
3175 3174 3174 3174 3175 3174 3173 3172 3171 3171 3170 3169 3168 3168 3167 3167 3168 3169 3169 3170 3169 3169 3168 3168 3169 3170 3170 3172 3173 3173 3174 3174 3174 3174 3174 3175 3175 3175 3175 3175 3175 3175 3174 3174 3173 3172 3172 3171 3170
3171 3171 3171 3170 3170 3169 3169 3169 3169 3167 3168 3167 3165 3164 3163 3163 3165 3167 3168 3168 3168 3167 3167 3167 3167 3167 3168 3168 3169 3170 3170 3170 3171 3171 3171 3171 3172 3171 3172 3172 3172 3171 3171 3170 3170 3169 3169 3168 3167
3167 3167 3165 3166 3165 3165 3165 3164 3164 3161 3162 3163 3161 3161 3160 3160 3161 3162 3164 3165 3166 3166 3165 3164 3164 3165 3165 3165 3166 3166 3167 3167 3168 3168 3168 3168 3168 3169 3168 3168 3167 3167 3166 3166 3166 3166 3165 3164 3164
3165 3162 3161 3161 3161 3161 3161 3161 3159 3157 3157 3156 3156 3154 3154 3155 3155 3157 3157 3159 3160 3164 3164 3163 3163 3163 3162 3163 3164 3164 3164 3164 3165 3165 3165 3164 3164 3164 3164 3164 3164 3163 3163 3162 3161 3161 3161 3160 3159
3161 3159 3158 3158 3160 3159 3160 3154 3153 3153 3152 3152 3151 3151 3149 3149 3151 3149 3150 3151 3153 3156 3158 3159 3159 3159 3159 3160 3161 3161 3161 3161 3161 3161 3161 3162 3161 3161 3160 3160 3159 3159 3158 3158 3158 3157 3156 3155 3155
3160 3159 3155 3155 3157 3156 3154 3147 3150 3149 3148 3148 3147 3146 3146 3146 3146 3146 3145 3144 3147 3147 3149 3152 3154 3155 3155 3156 3156 3157 3158 3159 3159 3158 3158 3158 3158 3157 3156 3156 3156 3155 3153 3153 3153 3153 3152 3152 3150
3157 3155 3154 3151 3152 3151 3149 3145 3147 3146 3145 3144 3144 3143 3142 3142 3142 3141 3140 3139 3139 3141 3140 3144 3146 3149 3151 3152 3152 3153 3153 3154 3156 3156 3155 3155 3154 3154 3154 3153 3152 3151 3150 3149 3148 3148 3147 3147 3147
3153 3152 3151 3148 3145 3144 3143 3142 3142 3142 3140 3138 3138 3138 3137 3136 3136 3136 3136 3135 3136 3135 3135 3136 3138 3141 3144 3145 3146 3147 3147 3149 3150 3150 3150 3151 3150 3149 3149 3148 3148 3147 3146 3145 3144 3142 3141 3140 3139
3150 3147 3143 3141 3141 3141 3137 3134 3134 3134 3133 3131 3130 3130 3131 3130 3130 3129 3129 3129 3129 3128 3130 3130 3131 3134 3135 3137 3139 3139 3141 3142 3142 3142 3143 3143 3143 3143 3142 3142 3142 3142 3140 3139 3138 3137 3135 3135 3133
3144 3140 3138 3134 3137 3139 3132 3124 3126 3127 3125 3126 3125 3124 3123 3123 3122 3122 3122 3121 3121 3122 3124 3125 3125 3127 3129 3130 3132 3133 3135 3135 3134 3133 3133 3135 3135 3135 3134 3134 3133 3134 3134 3132 3131 3130 3129 3127 3127
3136 3132 3135 3132 3132 3130 3127 3114 3116 3119 3119 3119 3119 3118 3117 3114 3113 3114 3115 3115 3114 3116 3116 3118 3119 3121 3123 3124 3125 3127 3128 3129 3129 3128 3127 3126 3126 3126 3126 3126 3125 3125 3125 3125 3124 3122 3120 3119 3119
3127 3130 3129 3128 3127 3122 3125 3109 3106 3109 3109 3112 3113 3112 3111 3109 3108 3108 3108 3108 3108 3108 3109 3111 3113 3115 3116 3117 3118 3120 3122 3123 3124 3122 3121 3121 3120 3119 3119 3118 3118 3118 3118 3117 3116 3116 3115 3113 3110
3121 3124 3125 3122 3119 3118 3110 3113 3094 3101 3101 3106 3107 3106 3107 3106 3105 3105 3104 3103 3103 3102 3102 3103 3106 3108 3109 3111 3113 3114 3115 3116 3118 3120 3115 3114 3113 3113 3113 3112 3112 3111 3110 3109 3109 3107 3106 3105 3101
3118 3113 3114 3113 3111 3107 3101 3106 3096 3094 3097 3099 3101 3100 3099 3102 3101 3099 3097 3096 3096 3097 3097 3097 3098 3102 3103 3104 3105 3107 3109 3110 3109 3110 3109 3108 3108 3108 3107 3106 3105 3105 3104 3102 3102 3100 3098 3096 3093
3112 3111 3105 3104 3100 3097 3098 3097 3087 3090 3094 3096 3094 3093 3090 3089 3087 3089 3088 3089 3090 3092 3093 3093 3093 3094 3096 3098 3099 3102 3103 3103 3103 3104 3105 3105 3104 3104 3103 3101 3099 3098 3097 3095 3093 3091 3088 3085 3081
3104 3106 3104 3099 3097 3093 3092 3083 3078 3086 3089 3090 3089 3089 3082 3076 3075 3075 3080 3083 3084 3085 3086 3086 3088 3088 3089 3091 3092 3094 3096 3097 3099 3098 3100 3099 3099 3099 3098 3097 3095 3092 3090 3087 3085 3081 3078 3075 3071
3097 3097 3099 3095 3096 3093 3088 3076 3073 3078 3082 3086 3083 3082 3073 3070 3069 3068 3072 3075 3076 3078 3078 3079 3081 3082 3083 3085 3087 3089 3091 3093 3094 3094 3094 3095 3095 3094 3093 3091 3088 3085 3081 3077 3074 3071 3067 3063 3059
3095 3094 3091 3089 3089 3086 3077 3075 3064 3073 3076 3076 3074 3074 3073 3073 3072 3072 3071 3072 3070 3071 3072 3072 3074 3075 3077 3080 3083 3085 3087 3088 3089 3089 3089 3089 3089 3087 3085 3083 3080 3076 3073 3069 3064 3059 3054 3050 3047
3090 3088 3089 3087 3089 3086 3081 3069 3067 3070 3073 3072 3072 3073 3071 3070 3067 3066 3064 3065 3064 3065 3068 3068 3070 3072 3074 3076 3079 3081 3082 3083 3083 3083 3082 3082 3081 3080 3077 3074 3071 3066 3061 3055 3051 3047 3042 3039 3035
3086 3087 3085 3085 3084 3079 3079 3066 3058 3067 3074 3072 3068 3066 3065 3067 3062 3060 3060 3059 3060 3061 3062 3063 3066 3068 3070 3072 3074 3075 3076 3076 3075 3076 3076 3075 3074 3072 3070 3065 3061 3056 3049 3044 3040 3036 3031 3027 3024
Wind_Speed
12 10 8 5 5 9 16 15 12 6 6 8 5 9 8 8 10 6 6 10 10 10 16 16 13 11 10 10 10 10 11 12 13 14 15 14 13 12 10 9 8 7 6 6 6 6 6 5 5
12 8 8 7 9 10 9 7 10 12 8 4 6 9 5 10 18 9 5 8 10 8 16 17 15 12 10 8 9 9 10 11 11 11 12 12 11 10 9 7 6 5 4 4 4 4 4 3 3
9 4 2 1 8 10 7 5 7 9 9 5 1 4 6 11 14 11 4 5 8 7 13 19 17 14 11 9 8 9 9 9 10 9 9 9 9 8 8 6 5 4 2 2 1 2 3 3 4
5 2 2 4 6 10 1 4 5 6 8 4 0 1 5 12 13 9 6 2 7 13 13 20 19 16 14 12 10 9 9 8 8 8 7 7 6 6 6 6 5 4 3 2 1 1 2 2 3
4 3 2 6 13 6 8 7 0 2 4 4 2 1 2 8 9 8 5 1 9 16 18 19 20 19 18 15 13 12 11 9 9 9 8 8 8 7 7 6 4 3 3 4 4 4 4 4 4
5 2 4 12 16 6 8 4 4 2 8 4 3 5 5 8 9 7 3 2 6 15 17 19 20 21 19 18 16 15 13 12 10 9 9 8 8 8 7 7 7 6 6 6 6 7 7 6 7
5 4 4 13 27 5 4 7 5 1 3 2 5 6 7 4 3 8 7 3 3 8 15 17 20 20 19 19 18 17 16 14 12 11 11 11 11 10 10 9 9 8 8 8 8 8 9 9 9
8 8 1 6 21 9 6 2 1 6 7 4 7 12 12 4 4 5 6 2 6 7 11 15 17 19 19 19 20 18 17 17 15 15 14 14 13 12 12 11 11 11 11 11 11 11 11 11 11
10 10 7 11 15 16 6 2 2 4 4 11 15 16 14 5 2 1 3 4 2 10 11 12 15 15 18 21 20 20 19 20 19 17 16 15 15 15 14 14 14 13 14 14 13 13 13 13 13
9 13 13 11 15 19 13 10 8 6 6 8 7 11 15 12 4 2 3 3 2 3 7 15 15 16 17 18 20 21 21 20 19 18 18 17 17 17 17 17 16 16 15 15 16 16 15 15 16
8 16 11 14 18 22 19 15 14 12 11 6 11 7 14 15 10 8 6 7 6 4 4 5 10 18 19 18 18 19 20 20 19 18 18 18 18 18 18 18 17 17 18 17 18 18 17 17 18
16 12 13 19 20 15 18 22 20 20 18 16 11 12 12 16 16 15 13 10 12 10 8 6 3 4 8 14 18 20 20 19 18 17 18 18 17 17 17 17 17 18 18 19 19 19 19 19 20
17 15 18 19 22 20 20 22 24 25 19 24 20 19 18 18 20 20 17 16 13 11 14 10 8 6 5 4 7 11 13 15 15 16 16 16 15 15 16 15 16 17 19 19 20 19 19 20 20
20 21 25 25 21 15 18 13 13 5 5 9 21 23 26 25 24 23 23 21 19 18 13 13 12 13 13 11 8 7 7 7 9 11 12 12 12 13 14 15 16 17 18 18 19 20 20 20 21
21 24 22 18 13 12 17 23 13 6 6 8 15 18 22 25 24 27 27 25 26 25 19 18 14 13 12 17 16 14 13 12 11 10 11 10 11 11 12 13 15 16 17 18 18 19 20 19 19
22 22 26 10 10 9 20 25 6 5 11 13 12 11 10 20 28 29 29 31 27 28 28 25 22 21 20 18 17 18 19 19 17 17 16 15 14 15 16 16 15 16 18 19 18 18 19 19 18
23 25 26 27 11 14 19 23 19 10 12 15 16 18 22 21 15 19 33 37 37 30 30 29 29 27 27 25 24 24 22 23 22 22 22 21 20 19 19 19 17 17 18 19 20 20 21 21 22
25 25 26 27 23 23 29 26 27 23 22 25 26 24 23 23 20 21 24 24 35 34 34 33 31 28 26 30 31 29 29 26 23 26 27 26 25 25 23 23 22 21 21 20 20 22 23 25 25
26 30 33 29 29 32 34 33 29 25 28 25 24 29 26 27 24 22 21 21 25 33 31 35 31 27 29 29 29 30 30 25 25 25 28 31 31 31 31 29 27 25 27 26 26 27 28 27 29
29 31 35 37 31 31 36 42 34 31 32 29 29 24 23 29 29 28 25 22 23 30 36 31 33 32 30 31 29 27 27 26 25 25 29 31 30 29 32 32 32 31 31 34 34 33 34 35 36
33 37 33 35 31 31 37 46 41 37 34 33 34 28 27 31 29 32 31 28 27 29 30 39 35 30 29 30 29 27 28 29 28 26 27 30 31 29 29 30 33 33 32 32 36 38 37 37 35
37 31 36 38 39 38 36 35 46 37 37 31 31 27 24 22 29 27 29 29 26 27 29 32 34 36 35 33 32 30 29 29 29 30 29 29 30 30 30 31 31 30 27 27 26 27 30 38 38
39 33 30 34 37 39 44 21 47 35 35 32 30 31 28 24 29 33 34 32 28 24 24 28 32 31 29 26 25 30 31 30 30 28 32 32 31 29 27 28 26 27 32 33 30 33 41 41 45
37 40 40 39 36 21 42 28 43 46 40 39 34 31 36 31 30 36 40 33 26 23 22 24 23 22 23 23 28 32 29 29 27 29 22 19 18 19 21 21 23 25 27 30 31 33 36 37 40
36 35 25 17 18 12 32 27 42 45 39 42 43 37 29 33 39 38 40 40 27 24 21 24 26 25 24 25 32 30 26 25 26 20 17 16 16 18 21 24 27 29 31 33 35 37 39 42 44
29 15 9 15 10 14 27 27 42 43 46 44 43 42 42 33 30 35 42 41 28 24 20 23 24 22 20 20 23 24 26 25 19 15 16 17 18 20 21 24 27 29 32 34 37 40 41 41 42
21 34 31 21 24 21 27 44 48 39 41 38 38 18 23 17 24 36 41 40 33 27 27 22 22 19 18 15 16 22 19 19 19 19 18 19 19 21 22 25 30 34 36 38 39 42 43 43 44
22 16 15 12 3 7 14 29 36 38 22 32 28 21 15 15 21 28 32 39 36 35 27 22 22 19 16 15 15 18 21 21 20 19 19 19 20 23 27 32 37 41 43 45 44 43 44 43 43
14 16 15 11 5 3 3 15 27 23 33 32 31 18 17 31 34 26 44 47 43 35 28 22 24 23 21 20 22 23 23 22 19 19 18 21 24 29 33 37 42 45 45 46 46 45 44 43 42
20 11 13 5 3 13 15 25 27 35 30 29 35 33 29 24 29 40 35 38 35 31 30 27 28 29 26 24 22 20 19 20 20 19 21 24 29 33 37 42 45 47 45 46 47 43 43 43 41
Wind_Direction
105 96 63 85 93 75 79 91 112 73 41 42 22 358 22 24 1 325 183 142 145 163 180 177 174 163 149 154 147 141 135 131 129 129 129 129 129 127 124 118 112 108 101 94 85 72 64 61 64
125 114 79 49 68 86 93 114 55 24 72 60 27 4 354 356 4 5 178 167 127 160 194 191 188 182 170 174 163 155 151 146 143 140 137 136 136 135 133 134 130 122 111 88 74 71 62 45 33
150 121 358 94 66 68 44 135 36 39 101 130 138 303 330 356 6 357 340 185 174 185 196 198 198 192 191 191 184 178 175 168 161 158 154 153 149 149 150 151 151 142 129 111 80 50 34 14 353
154 147 9 355 323 315 218 160 37 79 106 155 249 273 341 347 5 350 339 271 219 198 198 196 198 200 201 205 204 200 198 198 187 178 176 173 170 170 173 177 178 174 180 206 262 304 309 312 313
159 255 251 340 5 347 191 177 134 55 116 172 281 21 316 7 360 345 348 323 213 199 196 196 199 202 205 210 217 217 212 213 214 209 204 201 199 195 200 200 207 216 222 234 242 247 258 271 281
191 303 334 347 345 325 183 161 75 247 193 277 274 339 329 335 347 14 40 141 197 189 194 197 200 203 207 214 220 228 228 226 228 231 233 233 230 230 226 228 224 220 226 238 253 260 262 265 272
200 291 340 15 8 147 155 161 192 5 0 301 316 321 331 335 5 29 40 168 166 189 193 206 204 204 212 215 222 230 236 239 242 247 246 244 242 242 241 242 248 246 249 253 255 259 264 266 267
236 285 117 354 12 46 359 284 254 357 253 254 295 292 303 342 0 29 41 134 206 210 202 200 209 210 211 222 225 229 236 240 243 248 251 252 254 254 254 254 255 258 256 255 258 261 264 267 270
240 263 209 305 325 333 326 288 234 197 229 277 284 278 294 295 345 331 81 49 206 225 219 208 210 214 217 217 221 225 231 237 242 246 251 258 260 258 257 257 259 259 260 260 259 261 265 267 268
243 269 273 297 316 307 294 278 272 227 222 274 327 287 263 262 264 330 290 303 320 241 223 227 219 218 223 226 227 229 233 240 246 249 252 254 256 257 258 261 264 266 266 265 265 263 263 264 264
265 285 294 299 295 291 285 250 253 250 223 243 315 299 247 263 254 276 293 280 280 257 233 222 237 236 234 237 240 240 245 247 248 251 254 256 261 267 271 273 274 273 272 270 268 269 269 267 267
274 254 299 280 281 281 269 267 255 254 250 241 272 300 283 260 262 270 299 305 280 250 221 210 197 249 255 249 250 249 247 249 253 255 256 260 265 270 274 278 281 281 278 275 274 273 273 273 274
256 266 256 256 262 271 276 270 286 279 267 238 255 262 268 266 274 271 288 288 299 276 234 217 230 227 248 281 267 258 258 256 255 256 259 263 268 273 276 280 280 280 280 282 281 278 275 275 275
249 253 255 253 261 270 271 281 277 282 291 272 245 265 260 259 270 269 270 278 280 288 275 246 241 258 260 259 259 252 262 259 260 259 260 260 264 272 279 285 282 280 280 277 277 280 280 281 280
258 263 264 263 277 266 289 279 265 282 260 285 275 258 258 255 261 267 273 275 280 274 277 269 265 252 270 274 266 260 266 259 258 256 256 260 263 267 280 292 296 286 274 272 272 275 277 279 282
271 265 281 281 267 266 312 272 311 292 251 272 273 275 265 264 261 264 267 270 273 270 261 275 263 259 259 263 274 279 276 270 266 266 264 263 266 273 278 288 299 291 278 271 272 274 275 279 280
274 274 277 285 261 304 322 277 284 296 283 288 278 279 289 281 260 272 263 259 262 265 269 270 265 263 265 266 264 265 263 263 267 269 270 271 271 268 272 278 283 288 285 279 278 278 281 280 282
275 280 283 281 245 292 304 286 283 285 288 284 290 283 273 273 268 277 271 254 252 258 259 263 264 258 262 264 261 260 264 267 272 268 271 275 278 279 274 272 274 275 280 285 282 285 284 285 284
279 279 275 270 259 293 293 290 281 282 272 274 276 282 271 263 268 273 262 262 256 246 250 250 258 261 256 260 268 269 272 283 280 273 260 268 273 274 276 274 270 269 271 272 273 277 279 282 282
270 273 273 277 274 282 288 283 279 275 269 266 274 276 277 284 265 273 268 246 240 242 242 251 250 256 258 256 264 264 264 272 280 274 267 270 275 276 274 275 277 273 268 269 272 275 277 277 281
264 263 269 271 281 277 285 284 279 273 278 267 267 273 282 283 257 264 268 261 255 247 252 247 249 252 253 264 255 252 258 270 278 277 273 274 276 275 273 273 275 276 276 273 272 274 275 279 283
265 264 271 277 281 274 280 278 282 286 283 274 266 262 279 273 261 273 273 271 268 261 260 247 250 253 255 263 255 254 263 269 275 274 275 275 275 274 275 276 277 279 279 281 286 287 285 285 281
269 273 276 281 279 282 279 259 276 279 279 278 270 274 272 289 272 278 271 264 259 247 246 250 251 255 252 253 257 254 254 262 272 274 278 279 273 268 270 275 281 279 279 283 283 278 280 278 281
271 278 280 279 280 266 269 262 270 269 275 276 275 281 285 283 283 269 269 258 242 239 243 246 246 244 247 256 260 253 252 260 269 277 271 268 267 269 273 278 281 280 280 284 284 280 281 282 281
271 277 283 280 266 261 271 264 258 269 272 278 283 283 290 291 281 256 256 257 239 235 240 241 247 253 252 255 256 247 249 256 266 254 264 270 275 281 285 287 291 293 293 292 291 290 287 285 284
264 290 276 279 283 294 288 263 266 270 271 275 281 293 300 292 266 253 244 249 241 243 259 255 245 249 255 250 246 242 245 254 252 265 271 277 280 282 286 291 294 298 298 298 296 297 293 288 286
296 252 267 283 279 284 275 276 268 266 267 273 280 280 337 298 279 237 237 241 253 250 265 259 251 247 251 251 233 236 237 241 250 261 266 270 275 280 287 295 300 300 300 302 300 297 294 291 290
271 301 296 272 284 248 240 256 258 263 284 256 264 278 311 330 271 241 246 257 263 258 255 250 248 238 234 236 227 226 235 245 251 255 264 273 280 292 300 303 302 303 304 302 301 297 294 294 292
304 305 302 271 230 281 288 260 263 273 266 274 273 299 325 282 289 286 251 247 248 247 250 250 234 221 221 224 230 236 241 244 251 260 265 279 291 298 300 301 302 303 306 308 306 301 296 295 297
276 293 240 235 276 242 243 277 277 296 299 284 285 302 302 320 287 273 253 230 236 235 233 242 243 237 234 235 237 243 253 257 258 259 271 286 295 297 298 300 303 307 310 308 304 299 298 296 292